FW9580 Weather Reports


time (UTC)temp
F
wind
direction
speed
knots
gust
knots
rain 1hr
in
rain 24hr
in
rain mn
in
humidity
%
barometer
mb
20211026185001 44 73 10.4 18.2 0.00 0.00 0.00 66 1007.3
20211026184501 44 55 10.4 18.2 0.00 0.00 0.00 66 1007.3
20211026184001 44 64 10.4 18.2 0.00 0.00 0.00 66 1007.4
20211026183502 44 40 9.6 17.4 0.00 0.00 0.00 66 1007.4
20211026183001 44 46 9.6 18.2 0.00 0.00 0.00 66 1007.5
20211026182502 44 42 12.2 18.2 0.00 0.00 0.00 66 1007.7
20211026182002 44 38 10.4 17.4 0.00 0.00 0.00 66 1007.8
20211026181501 44 46 10.4 17.4 0.00 0.00 0.00 66 1007.9
20211026181001 44 56 11.3 15.6 0.00 0.00 0.00 66 1008.1
20211026180501 44 48 9.6 15.6 0.00 0.00 0.00 66 1008.2
20211026180004 44 44 8.7 16.5 0.00 0.00 0.00 66 1008.2
20211026175502 44 46 8.7 16.5 0.00 0.00 0.00 66 1008.4
20211026175001 44 50 11.3 14.8 0.00 0.00 0.00 66 1008.5
20211026174516 44 31 11.3 14.8 0.00 0.00 0.00 66 1008.5
20211026174002 44 33 9.6 13.9 0.00 0.00 0.00 66 1008.5
20211026173501 44 35 9.6 15.6 0.00 0.00 0.00 66 1008.5
20211026173001 44 70 10.4 15.6 0.00 0.00 0.00 66 1008.7
20211026172501 44 34 10.4 13.9 0.00 0.00 0.00 66 1008.8
20211026172001 44 37 7.0 13.9 0.00 0.00 0.00 66 1009.0
20211026171501 44 26 9.6 16.5 0.00 0.00 0.00 66 1009.1
20211026171001 44 42 10.4 16.5 0.00 0.00 0.00 66 1009.2
20211026170502 44 43 9.6 15.6 0.00 0.00 0.00 66 1009.4
20211026170040 44 46 7.0 13.0 0.00 0.00 0.00 66 1009.4
20211026165501 44 36 7.0 14.8 0.00 0.00 0.00 66 1009.6
20211026165001 44 41 8.7 14.8 0.00 0.00 0.00 66 1009.6
20211026164501 44 42 6.1 14.8 0.00 0.00 0.00 66 1009.7
20211026164002 44 34 7.8 13.0 0.00 0.00 0.00 66 1010.0
20211026163502 44 68 7.8 13.9 0.00 0.00 0.00 66 1010.2
20211026163001 44 63 7.8 16.5 0.00 0.00 0.00 66 1010.3
20211026162504 44 67 11.3 16.5 0.00 0.00 0.00 66 1010.4
20211026162005 44 59 10.4 14.8 0.00 0.00 0.00 66 1010.7
20211026161501 44 66 9.6 13.9 0.00 0.00 0.00 66 1010.9
20211026161001 44 68 7.0 14.8 0.00 0.00 0.00 66 1010.9
20211026160501 44 61 9.6 14.8 0.00 0.00 0.00 66 1011.0
20211026160003 44 63 7.8 16.5 0.00 0.00 0.00 66 1011.0
20211026155501 44 76 9.6 16.5 0.00 0.00 0.00 66 1011.0
20211026155002 44 71 9.6 16.5 0.00 0.00 0.00 66 1011.1
20211026154501 44 84 10.4 16.5 0.00 0.00 0.00 66 1011.2
20211026154001 44 35 9.6 16.5 0.00 0.00 0.00 66 1011.2
20211026153501 44 39 8.7 17.4 0.00 0.00 0.00 66 1011.3
20211026153002 44 60 9.6 17.4 0.00 0.00 0.00 66 1011.2
20211026152001 44 71 8.7 16.5 0.00 0.00 0.00 66 1011.5
20211026151501 44 23 10.4 16.5 0.00 0.00 0.00 66 1011.3
20211026151001 44 52 9.6 15.6 0.00 0.00 0.00 66 1011.4
20211026150501 44 49 9.6 16.5 0.00 0.00 0.00 66 1011.3
20211026150003 44 49 10.4 20.0 0.00 0.00 0.00 66 1011.2
20211026145501 44 53 13.0 20.0 0.00 0.00 0.00 66 1011.4
20211026145001 44 69 10.4 19.1 0.00 0.00 0.00 66 1011.4
20211026144501 44 65 11.3 19.1 0.00 0.00 0.00 66 1011.4
20211026144001 44 82 12.2 20.0 0.00 0.00 0.00 66 1011.5
20211026143502 44 67 13.0 20.0 0.00 0.00 0.00 66 1011.5
20211026143001 44 48 12.2 18.2 0.00 0.00 0.00 66 1011.5
20211026142501 44 59 10.4 18.2 0.00 0.00 0.00 66 1011.6
20211026142001 44 47 10.4 17.4 0.00 0.00 0.00 66 1011.5
20211026141501 44 59 11.3 18.2 0.00 0.00 0.00 66 1011.6
20211026141001 44 74 13.0 18.2 0.00 0.00 0.00 66 1011.6
20211026140501 44 36 13.0 20.0 0.00 0.00 0.00 66 1011.7
20211026140003 44 44 13.0 20.9 0.00 0.00 0.00 66 1011.7
20211026135505 44 79 13.0 20.9 0.00 0.00 0.00 66 1011.8
20211026135001 44 37 13.0 18.2 0.00 0.00 0.00 66 1011.8
20211026134504 44 69 12.2 16.5 0.00 0.00 0.00 66 1011.8
20211026134001 44 55 8.7 21.7 0.00 0.00 0.00 66 1011.9
20211026133501 44 62 12.2 21.7 0.00 0.00 0.00 66 1012.0
20211026133001 44 37 10.4 18.2 0.00 0.00 0.00 66 1012.1
20211026132502 44 81 9.6 18.2 0.00 0.00 0.00 66 1012.1
20211026132002 44 74 12.2 18.2 0.00 0.00 0.00 66 1012.2
20211026131505 44 50 13.9 18.2 0.00 0.00 0.00 66 1012.4
20211026131001 44 102 9.6 17.4 0.00 0.00 0.00 66 1012.5
20211026130501 44 76 11.3 17.4 0.00 0.00 0.00 66 1012.5
20211026130004 44 72 12.2 20.9 0.00 0.00 0.00 66 1012.3
20211026125502 44 61 13.0 20.9 0.00 0.00 0.00 66 1012.3
20211026125003 44 77 11.3 17.4 0.00 0.00 0.00 66 1012.5
20211026124501 44 64 12.2 20.0 0.00 0.00 0.00 66 1012.7
20211026124001 44 55 11.3 20.0 0.00 0.00 0.00 66 1012.8
20211026123501 44 62 11.3 19.1 0.00 0.00 0.00 66 1012.7
20211026123001 44 57 12.2 19.1 0.00 0.00 0.00 66 1012.8
20211026122501 44 54 11.3 18.2 0.00 0.00 0.00 66 1013.0
20211026122000 44 74 7.8 16.5 0.00 0.00 0.00 66 1013.0
20211026121501 44 43 8.7 16.5 0.00 0.00 0.00 66 1013.0
20211026121001 44 74 12.2 16.5 0.00 0.00 0.00 66 1013.1
20211026120501 44 47 9.6 16.5 0.00 0.00 0.00 66 1013.1
20211026120007 44 78 11.3 15.6 0.00 0.00 0.00 66 1013.1
20211026115501 44 68 9.6 15.6 0.00 0.00 0.00 66 1013.2
20211026115001 44 65 8.7 14.8 0.00 0.00 0.00 66 1013.1
20211026114501 44 46 9.6 14.8 0.00 0.00 0.00 66 1013.0
20211026114001 44 69 9.6 15.6 0.00 0.00 0.00 66 1013.0
20211026113501 44 54 12.2 18.2 0.00 0.00 0.00 66 1012.9
20211026113001 44 58 10.4 18.2 0.00 0.00 0.00 66 1012.9
20211026112501 44 55 7.8 16.5 0.00 0.00 0.00 66 1012.9
20211026112001 44 46 8.7 16.5 0.00 0.00 0.00 66 1012.9
20211026111501 44 61 9.6 15.6 0.00 0.00 0.00 66 1013.0
20211026111001 44 65 10.4 17.4 0.00 0.00 0.00 66 1013.1
20211026110501 44 62 7.8 17.4 0.00 0.00 0.00 66 1013.4
20211026110003 44 44 8.7 13.0 0.00 0.00 0.00 66 1013.3
20211026105501 44 71 7.0 13.0 0.00 0.00 0.00 66 1013.3
20211026105001 44 55 10.4 13.9 0.00 0.00 0.00 66 1013.3
20211026104501 44 63 7.8 13.9 0.00 0.00 0.00 66 1013.2
20211026104000 44 50 8.7 16.5 0.00 0.00 0.00 66 1013.2
20211026103501 44 62 10.4 16.5 0.00 0.00 0.00 66 1013.1
20211026103001 44 44 9.6 16.5 0.00 0.00 0.00 66 1013.2
20211026102501 44 61 10.4 16.5 0.00 0.00 0.00 66 1013.3
20211026102001 44 65 11.3 16.5 0.00 0.00 0.00 66 1013.5
20211026101501 44 36 10.4 20.0 0.00 0.00 0.00 66 1013.5
20211026101001 44 62 13.0 20.0 0.00 0.00 0.00 66 1013.5
20211026100501 44 53 12.2 19.1 0.00 0.00 0.00 66 1013.5
20211026100003 44 58 11.3 19.1 0.00 0.00 0.00 66 1013.5
20211026095501 44 63 9.6 15.6 0.00 0.00 0.00 66 1013.7
20211026095001 44 58 9.6 14.8 0.00 0.00 0.00 66 1013.7
20211026094501 44 67 7.8 14.8 0.00 0.00 0.00 66 1013.8
20211026094001 44 61 9.6 16.5 0.00 0.00 0.00 66 1013.8
20211026093500 44 59 12.2 16.5 0.00 0.00 0.00 66 1013.7
20211026093009 44 65 10.4 14.8 0.00 0.00 0.00 66 1013.8
20211026092502 44 53 10.4 13.9 0.00 0.00 0.00 66 1013.9
20211026092001 44 61 9.6 13.9 0.00 0.00 0.00 66 1013.9
20211026091504 44 33 8.7 13.9 0.00 0.00 0.00 66 1014.1
20211026091001 44 27 7.0 14.8 0.00 0.00 0.00 66 1014.2
20211026090500 44 66 7.0 15.6 0.00 0.00 0.00 66 1014.2
20211026090008 44 55 10.4 15.6 0.00 0.00 0.00 66 1014.2
20211026085500 44 64 9.6 13.9 0.00 0.00 0.00 66 1014.3
20211026085003 44 76 8.7 13.9 0.00 0.00 0.00 66 1014.5
20211026084500 44 71 7.0 13.0 0.00 0.00 0.00 66 1014.6
20211026083959 44 53 7.8 13.9 0.00 0.00 0.00 66 1014.7
20211026083459 44 35 8.7 13.9 0.00 0.00 0.00 66 1014.7
20211026083000 44 76 8.7 12.2 0.00 0.00 0.00 66 1014.6
20211026082500 44 71 8.7 12.2 0.00 0.00 0.00 66 1014.5
20211026082000 44 78 6.1 11.3 0.00 0.00 0.00 66 1014.6
20211026081459 44 36 7.8 11.3 0.00 0.00 0.00 66 1014.4
20211026081000 44 48 7.0 13.9 0.00 0.00 0.00 66 1014.5
20211026080500 44 57 7.8 13.9 0.00 0.00 0.00 66 1014.6
20211026080007 44 38 7.8 13.9 0.00 0.00 0.00 66 1014.5
20211026075501 44 53 7.8 10.4 0.00 0.00 0.00 66 1014.9
20211026074500 44 48 7.0 11.3 0.00 0.00 0.00 66 1015.2
20211026074001 44 54 7.0 9.6 0.00 0.00 0.00 66 1015.2
20211026073500 44 54 5.2 8.7 0.00 0.00 0.00 66 1015.5
20211026073001 44 61 3.5 8.7 0.00 0.00 0.00 66 1015.5
20211026072501 44 50 4.3 10.4 0.00 0.00 0.00 66 1015.6
20211026072000 44 65 5.2 10.4 0.00 0.00 0.00 66 1015.5
20211026071501 44 41 6.1 10.4 0.00 0.00 0.00 66 1015.6
20211026071002 44 46 7.8 10.4 0.00 0.00 0.00 66 1015.5
20211026070500 44 59 5.2 9.6 0.00 0.00 0.00 66 1015.6
20211026070002 44 41 5.2 11.3 0.00 0.00 0.00 66 1015.8
20211026065500 44 56 4.3 11.3 0.00 0.00 0.00 66 1015.7
20211026065001 44 44 6.1 10.4 0.00 0.00 0.00 66 1015.7
20211026064500 44 40 7.0 9.6 0.00 0.00 0.00 66 1015.5
20211026064001 44 55 6.1 9.6 0.00 0.00 0.00 66 1015.8
20211026063528 44 53 4.3 11.3 0.00 0.00 0.00 66 1016.0
20211026063001 44 79 5.2 11.3 0.00 0.00 0.00 66 1016.2
20211026062501 44 63 6.1 9.6 0.00 0.00 0.00 66 1016.2
20211026062001 44 61 4.3 8.7 0.00 0.00 0.00 66 1016.3
20211026061501 44 52 4.3 8.7 0.00 0.00 0.00 66 1016.3
20211026061003 44 46 4.3 8.7 0.00 0.00 0.00 66 1016.2
20211026060500 44 26 4.3 7.8 0.00 0.00 0.00 66 1016.4
20211026060007 44 46 5.2 7.8 0.00 0.00 0.00 66 1016.6
20211026055503 44 18 5.2 7.8 0.00 0.00 0.00 66 1016.5
20211026055002 44 28 4.3 10.4 0.00 0.00 0.00 66 1016.7
20211026054503 44 36 6.1 10.4 0.00 0.00 0.00 66 1016.5
20211026054002 44 42 3.5 8.7 0.00 0.00 0.00 66 1016.5
20211026053503 44 45 4.3 8.7 0.00 0.00 0.00 66 1016.6
20211026053002 44 22 3.5 11.3 0.00 0.00 0.00 66 1016.4
20211026052521 44 44 7.0 11.3 0.00 0.00 0.00 66 1016.3
20211026052002 44 32 7.0 10.4 0.00 0.00 0.00 66 1016.4
20211026051502 44 61 4.3 9.6 0.00 0.00 0.00 66 1016.7
20211026045502 44 49 7.0 10.4 0.00 0.00 0.00 66 1016.9
20211026045015 44 47 6.1 10.4 0.00 0.00 0.00 66 1017.1
20211026044003 44 44 6.1 9.6 0.00 0.00 0.00 66 1017.4
20211026043505 44 33 6.1 10.4 0.00 0.00 0.00 66 1017.6
20211026043003 44 46 2.6 11.3 0.00 0.00 0.00 66 1017.7
20211026042502 44 46 5.2 8.7 0.00 0.00 0.00 66 1017.7
20211026042003 44 56 4.3 8.7 0.00 0.00 0.00 66 1017.8
20211026041518 44 42 5.2 8.7 0.00 0.00 0.00 66 1017.7
20211026035503 44 40 5.2 8.7 0.00 0.00 0.00 66 1017.9
20211026035003 44 34 3.5 8.7 0.00 0.00 0.00 66 1018.0
20211026034503 44 29 4.3 8.7 0.00 0.00 0.00 66 1018.0
20211026034002 44 46 4.3 7.0 0.00 0.00 0.00 66 1017.9
20211026033503 44 33 3.5 7.0 0.00 0.00 0.00 66 1018.0
20211026033003 44 55 3.5 7.8 0.00 0.00 0.00 66 1018.1
20211026032503 44 47 3.5 7.8 0.00 0.00 0.00 66 1018.0
20211026032003 44 42 4.3 7.8 0.00 0.00 0.00 66 1018.0
20211026031502 44 50 5.2 7.8 0.00 0.00 0.00 66 1018.0
20211026031002 44 49 4.3 7.8 0.00 0.00 0.00 66 1018.2
20211026030503 44 62 4.3 7.8 0.00 0.00 0.00 66 1018.2
20211026030004 44 57 3.5 5.2 0.00 0.00 0.00 66 1018.4
20211026025502 44 51 2.6 5.2 0.00 0.00 0.00 66 1018.5
20211026025001 44 35 2.6 6.1 0.00 0.00 0.00 66 1018.3
20211026024502 44 58 2.6 6.1 0.00 0.00 0.00 66 1018.2
20211026022502 44 44 5.2 7.8 0.00 0.00 0.00 66 1018.0
20211026021502 44 46 4.3 5.2 0.00 0.00 0.00 66 1018.1
20211026021012 44 71 3.5 7.8 0.00 0.00 0.00 66 1018.2
20211026020503 44 58 4.3 8.7 0.00 0.00 0.00 66 1018.0
20211026020004 44 62 5.2 8.7 0.00 0.00 0.00 66 1018.0
20211026015502 44 57 5.2 10.4 0.00 0.00 0.00 66 1018.2
20211026015002 44 46 6.1 10.4 0.00 0.00 0.00 66 1018.0
20211026014503 44 51 7.0 9.6 0.00 0.00 0.00 66 1018.3
20211026014003 44 63 6.1 8.7 0.00 0.00 0.00 66 1018.3
20211026013502 44 67 4.3 7.8 0.00 0.00 0.00 66 1018.2
20211026013002 44 60 3.5 5.2 0.00 0.00 0.00 66 1018.4
20211026012505 44 57 3.5 6.1 0.00 0.00 0.00 66 1018.7
20211026012010 44 51 3.5 7.8 0.00 0.00 0.00 66 1018.5
20211026011503 44 49 4.3 7.8 0.00 0.00 0.00 66 1018.3
20211026011002 44 55 3.5 5.2 0.00 0.00 0.00 66 1018.4
20211026010502 44 44 3.5 7.8 0.00 0.00 0.00 66 1018.4
20211026010004 44 67 4.3 7.8 0.00 0.00 0.00 66 1018.5
20211026005502 44 40 3.5 8.7 0.00 0.00 0.00 66 1018.3
20211026005001 44 61 4.3 8.7 0.00 0.00 0.00 66 1018.2
20211026004502 44 35 5.2 8.7 0.00 0.00 0.00 66 1018.2
20211026004025 44 48 4.3 8.7 0.00 0.00 0.00 66 1018.2
20211026002002 44 58 3.5 6.1 0.00 0.00 0.00 66 1018.4
20211026001003 44 36 1.7 5.2 0.00 0.00 0.00 66 1018.6
20211026000502 44 53 4.3 6.1 0.00 0.00 0.00 66 1018.6
20211026000005 44 49 2.6 6.1 0.00 0.00 0.00 66 1018.7
20211025235502 44 38 3.5 7.0 0.00 0.00 0.00 66 1018.5
20211025235003 44 69 3.5 5.2 0.00 0.00 0.00 66 1018.5
20211025234544 44 55 2.6 4.3 0.00 0.00 0.00 66 1018.5
20211025233503 44 42 2.6 6.1 0.00 0.00 0.00 66 1018.7
20211025233002 44 56 3.5 7.8 0.00 0.00 0.00 66 1018.7
20211025232512 44 53 4.3 7.8 0.00 0.00 0.00 66 1018.6
20211025232012 44 38 3.5 6.1 0.00 0.00 0.00 66 1018.6
20211025231502 44 46 3.5 7.8 0.00 0.00 0.00 66 1018.7
20211025231003 44 50 4.3 7.8 0.00 0.00 0.00 66 1018.8
20211025230502 44 54 4.3 6.1 0.00 0.00 0.00 66 1018.9
20211025230005 44 62 3.5 7.8 0.00 0.00 0.00 66 1018.8
20211025225502 44 40 3.5 7.8 0.00 0.00 0.00 66 1018.6
20211025224001 44 37 4.3 9.6 0.00 0.00 0.00 66 1018.9
20211025223501 44 49 3.5 9.6 0.00 0.00 0.00 66 1018.8
20211025223002 44 22 4.3 7.8 0.00 0.00 0.00 66 1018.7
20211025222502 44 50 4.3 6.1 0.00 0.00 0.00 66 1018.8
20211025222004 44 13 3.5 7.8 0.00 0.00 0.00 66 1018.9
20211025221501 44 54 4.3 7.8 0.00 0.00 0.00 66 1019.0
20211025221001 44 57 3.5 7.8 0.00 0.00 0.00 66 1019.0
20211025220501 44 45 4.3 7.8 0.00 0.00 0.00 66 1019.1
20211025220004 44 56 4.3 6.1 0.00 0.00 0.00 66 1019.2
20211025215501 44 61 3.5 5.2 0.00 0.00 0.00 66 1019.5
20211025215001 44 58 3.5 5.2 0.00 0.00 0.00 66 1019.5
20211025214501 44 64 3.5 5.2 0.00 0.00 0.00 66 1019.5
20211025214002 44 71 3.5 5.2 0.00 0.00 0.00 66 1019.4
20211025213501 44 63 3.5 5.2 0.00 0.00 0.00 66 1019.3
20211025213002 44 57 4.3 7.0 0.00 0.00 0.00 66 1019.4
20211025212501 44 65 4.3 7.8 0.00 0.00 0.00 66 1019.2
20211025212011 44 72 5.2 7.8 0.00 0.00 0.00 66 1019.1
20211025211501 44 66 3.5 6.1 0.00 0.00 0.00 66 1019.0
20211025211001 44 51 3.5 6.1 0.00 0.00 0.00 66 1019.1
20211025210501 44 58 3.5 6.1 0.00 0.00 0.00 66 1019.0
20211025210003 44 56 3.5 4.3 0.00 0.00 0.00 66 1019.1
20211025205507 44 47 2.6 4.3 0.00 0.00 0.00 66 1019.2
20211025205002 44 47 2.6 4.3 0.00 0.00 0.00 66 1019.2
20211025204507 44 63 1.7 4.3 0.00 0.00 0.00 66 1019.3
20211025204001 44 61 1.7 4.3 0.00 0.00 0.00 66 1019.4
20211025203501 44 43 1.7 3.5 0.00 0.00 0.00 66 1019.6
20211025203001 44 59 1.7 2.6 0.00 0.00 0.00 66 1019.6
20211025202502 44 49 1.7 3.5 0.00 0.00 0.00 66 1019.6
20211025202002 44 29 1.7 3.5 0.00 0.00 0.00 66 1019.7
20211025201502 44 30 1.7 3.5 0.00 0.00 0.00 66 1019.7
20211025201002 44 65 2.6 3.5 0.00 0.00 0.00 66 1019.6
20211025200501 44 63 2.6 2.6 0.00 0.00 0.00 66 1019.6
20211025200004 44 57 1.7 2.6 0.00 0.00 0.00 66 1019.6
20211025195501 44 53 1.7 3.5 0.00 0.00 0.00 66 1019.8
20211025195002 44 59 0.9 3.5 0.00 0.00 0.00 66 1019.8
20211025194501 44 55 1.7 3.5 0.00 0.00 0.00 66 1019.9
20211025194002 44 66 1.7 2.6 0.00 0.00 0.00 66 1020.0
20211025193502 44 76 0.9 2.6 0.00 0.00 0.00 66 1020.0
20211025193004 44 76 1.7 2.6 0.00 0.00 0.00 66 1020.0
20211025192501 44 75 0.9 3.5 0.00 0.00 0.00 66 1020.0
20211025192001 44 75 1.7 3.5 0.00 0.00 0.00 66 1020.1
20211025191501 44 80 1.7 2.6 0.00 0.00 0.00 66 1019.9
20211025191001 44 43 1.7 2.6 0.00 0.00 0.00 66 1020.0
20211025190501 44 42 1.7 2.6 0.00 0.00 0.00 66 1020.1
20211025190004 44 42 0.9 2.6 0.00 0.00 0.00 66 1020.4
20211025185501 44 24 1.7 2.6 0.00 0.00 0.00 66 1020.2